Date,TemperatureHighF,TemperatureAvgF,TemperatureLowF,DewpointHighF,DewpointAvgF,DewpointLowF,HumidityHigh,HumidityAvg,HumidityLow,PressureMaxIn,PressureMinIn,WindSpeedMaxMPH,WindSpeedAvgMPH,GustSpeedMaxMPH,PrecipitationSumIn
2012-6-4,98.4,85.4,75.7,76.1,71.7,68.0,81,65,44,29.52,29.39,9,1,9,0.00
2012-6-5,93.7,84.2,78.6,76.0,73.0,69.7,85,70,46,29.42,29.34,9,1,9,0.00
2012-6-6,90.5,83.3,79.2,75.7,73.2,67.5,84,72,52,29.48,29.40,5,1,5,0.00
2012-6-7,99.5,86.5,80.1,77.7,74.6,71.1,86,69,44,29.50,29.43,7,2,7,0.00
2012-6-8,95.5,84.1,77.5,76.3,73.8,71.7,85,72,53,29.50,29.41,7,1,7,0.00
2012-6-9,94.3,81.8,76.3,77.7,74.8,72.8,89,80,58,29.55,29.47,4,0,4,0.00
2012-6-10,96.4,87.9,76.8,78.2,74.7,71.9,89,66,52,29.65,29.51,10,2,10,0.00
2012-6-11,94.6,85.0,78.6,72.8,70.3,67.1,78,63,45,29.64,29.56,12,2,12,0.00
2012-6-12,96.6,84.4,75.9,69.9,66.7,64.3,70,57,41,29.61,29.49,9,1,9,0.00
2012-6-13,100.8,86.6,73.2,73.9,69.4,66.3,81,59,40,29.53,29.41,9,1,10,0.00
2012-6-14,100.6,86.0,76.6,77.7,72.7,68.7,79,66,42,29.52,29.41,14,1,14,0.00
2012-6-15,97.5,82.0,74.5,75.9,71.5,67.5,83,71,48,29.55,29.44,12,2,12,0.04
2012-6-16,91.0,82.4,76.6,71.9,68.9,65.3,79,65,49,29.56,29.45,17,4,17,0.00
2012-6-17,92.5,82.5,75.7,68.7,65.9,61.6,71,58,44,29.56,29.46,18,3,18,0.00
2012-6-18,94.6,83.2,76.3,68.8,65.3,63.0,71,56,39,29.55,29.46,11,3,11,0.00
2012-6-19,89.2,82.0,78.1,72.3,69.5,65.7,79,66,56,29.56,29.49,16,5,16,0.00
2012-6-20,86.4,78.6,75.6,75.3,72.4,70.2,88,82,64,29.54,29.45,16,2,16,0.04
2012-6-21,95.9,83.3,75.9,76.1,72.8,70.0,85,72,51,29.52,29.40,13,2,13,0.00
2012-6-22,90.3,80.4,74.8,78.3,73.3,70.4,87,79,60,29.49,29.35,11,1,11,0.08
2012-6-23,88.9,79.3,74.3,77.6,73.1,69.2,89,82,66,29.53,29.38,15,2,15,0.17
2012-6-24,81.0,77.9,73.9,77.0,73.9,69.3,91,87,84,29.51,29.38,19,3,19,0.00
2012-6-25,96.6,84.7,79.7,76.4,74.5,71.8,85,72,49,29.39,29.28,15,5,15,0.00
2012-6-26,96.6,85.7,79.5,75.1,72.9,69.4,81,67,47,29.31,29.24,19,6,19,0.12
2012-6-27,97.5,85.3,79.3,78.5,74.5,71.5,82,71,48,29.52,29.28,19,5,19,0.33
2012-6-28,95.9,84.3,75.0,75.8,71.4,68.1,81,66,50,29.59,29.51,10,1,10,0.00
2012-6-29,98.4,87.0,76.3,75.9,71.9,68.6,80,62,46,29.58,29.47,10,1,10,0.00
2012-6-30,100.8,87.3,77.5,77.1,72.9,70.0,82,64,45,29.55,29.46,12,1,12,0.00
2012-7-1,101.5,87.8,79.0,78.3,73.4,70.2,81,64,43,29.61,29.51,10,1,10,0.00
2012-7-2,102.0,88.2,78.4,77.8,73.5,69.8,83,64,37,29.65,29.52,10,1,10,0.00
2012-7-3,102.4,88.4,77.5,77.5,73.7,71.2,82,64,40,29.60,29.52,10,1,10,0.00
2012-7-4,97.9,85.8,79.5,77.1,74.1,70.0,83,69,50,29.62,29.53,9,1,9,0.00
2012-7-5,101.8,86.3,76.6,77.0,73.0,70.5,83,66,45,29.59,29.51,10,1,10,0.00
2012-7-6,102.4,88.2,77.9,77.3,73.2,70.1,82,63,41,29.59,29.52,12,1,12,0.00
2012-7-7,101.1,87.9,79.2,76.2,73.6,70.7,80,64,42,29.62,29.54,10,2,10,0.00
2012-7-8,99.1,86.7,78.6,76.8,74.0,71.3,85,67,48,29.61,29.54,10,1,10,0.00
2012-7-9,96.8,85.5,77.5,76.5,73.4,69.7,87,68,50,29.59,29.49,9,1,9,0.00
2012-7-10,100.2,86.8,77.5,77.5,74.1,71.6,84,68,45,29.57,29.47,13,2,13,0.04
2012-7-11,92.1,80.1,74.1,73.9,71.8,69.3,88,77,53,29.60,29.47,12,1,12,0.04
2012-7-12,97.0,83.8,77.2,75.5,72.1,67.9,82,69,44,29.57,29.49,18,1,18,0.00
2012-7-13,95.5,84.4,75.2,76.5,72.8,69.4,87,70,51,29.58,29.51,14,2,14,0.00
2012-7-14,95.4,85.0,79.9,76.6,72.5,70.4,77,67,52,29.61,29.50,11,3,11,0.08
2012-7-15,99.0,83.2,76.1,75.6,71.9,69.9,84,70,43,29.65,29.55,10,2,10,0.04
2012-7-16,94.8,79.5,73.8,76.2,72.2,68.8,87,79,55,29.64,29.51,8,0,8,0.00
2012-7-17,95.0,79.9,74.3,77.7,73.0,69.5,89,80,55,29.58,29.49,10,0,10,0.00
2012-7-18,99.5,84.9,73.8,78.9,73.6,69.2,87,71,46,29.66,29.52,15,1,15,0.00
2012-7-19,101.1,88.1,78.4,77.8,74.9,72.8,87,67,46,29.71,29.62,10,1,10,0.00
2012-7-20,99.9,88.2,80.4,77.7,74.9,72.9,79,66,48,29.67,29.57,10,2,10,0.00
2012-7-21,99.1,87.5,81.7,78.6,75.9,73.9,79,69,52,29.63,29.55,10,2,10,0.00
2012-7-22,90.1,81.2,75.7,78.2,73.9,70.0,87,79,66,29.66,29.55,19,1,19,0.17
2012-7-23,97.0,82.9,75.4,78.3,74.0,68.6,89,76,52,29.70,29.62,8,0,8,0.00
2012-7-24,101.1,87.1,80.8,79.9,76.1,69.0,86,71,50,29.67,29.55,10,1,10,0.00
2012-7-25,103.6,88.7,79.2,78.2,74.4,72.7,83,65,40,29.59,29.51,10,1,10,0.00
2012-7-26,100.9,88.2,78.4,77.5,73.6,71.5,82,64,44,29.58,29.51,11,1,11,0.00
2012-7-27,101.1,89.3,79.2,78.1,74.3,71.7,81,63,42,29.63,29.52,9,1,9,0.00
2012-7-28,100.8,86.5,77.5,77.9,73.1,69.5,83,66,42,29.63,29.56,10,1,10,0.00
2012-7-29,101.7,88.3,76.8,76.0,72.7,70.3,84,62,41,29.62,29.53,9,1,9,0.00
2012-7-30,102.7,86.7,78.6,76.1,71.4,64.9,79,62,40,29.59,29.50,10,1,10,0.00
2012-7-31,103.5,87.7,76.3,76.9,71.8,67.5,78,61,40,29.59,29.49,10,1,10,0.00
2012-8-1,103.6,87.7,79.3,78.0,73.4,69.3,79,64,43,29.55,29.46,10,1,10,0.00
2012-8-2,101.1,87.2,78.6,78.3,74.7,73.1,85,68,45,29.52,29.45,9,1,9,0.00
2012-8-3,94.8,81.7,77.5,78.3,74.2,72.1,87,78,56,29.54,29.44,10,0,10,0.00
2012-8-4,97.3,84.0,75.7,77.4,74.4,72.2,90,74,51,29.58,29.46,10,2,10,0.00
2012-8-5,99.5,87.2,79.5,77.8,74.8,71.8,82,68,49,29.61,29.53,9,2,9,0.00
2012-8-6,92.7,82.5,77.5,79.1,74.6,70.1,86,77,63,29.60,29.51,11,1,11,0.16
2012-8-7,99.3,86.9,76.8,78.9,75.0,72.0,88,69,46,29.57,29.48,10,2,10,0.00
2012-8-8,100.9,88.1,81.0,78.3,74.8,71.7,80,66,47,29.57,29.49,10,1,10,0.00
2012-8-9,101.1,88.4,81.1,78.2,74.8,71.2,79,65,46,29.56,29.44,10,2,10,0.00
2012-8-10,94.3,83.4,79.3,77.3,72.8,70.1,78,71,53,29.54,29.45,10,1,10,0.33
2012-8-11,96.6,82.6,76.1,77.3,72.5,68.6,85,73,52,29.57,29.46,10,1,10,0.00
2012-8-12,99.7,82.7,76.1,78.3,74.3,70.0,88,77,49,29.59,29.50,11,0,11,0.20
2012-8-13,98.6,84.6,76.3,78.7,75.2,72.5,89,75,51,29.60,29.52,7,0,7,0.00
2012-8-14,102.0,86.9,78.6,78.1,74.7,72.6,85,68,43,29.59,29.48,9,1,9,0.00
2012-8-15,96.4,85.9,79.0,81.7,75.7,73.2,86,72,55,29.57,29.50,11,1,11,0.20
2012-8-16,95.9,84.1,78.6,78.1,75.3,72.8,86,76,52,29.61,29.51,7,0,7,0.04
2012-8-17,101.3,84.7,76.3,78.1,73.2,68.3,87,71,39,29.58,29.45,10,1,10,0.00
2012-8-18,100.2,82.3,76.1,80.6,73.6,71.4,88,76,46,29.53,29.43,9,1,9,0.04
2012-8-19,99.5,85.5,77.5,78.4,75.3,73.0,88,73,49,29.54,29.45,15,1,15,0.09
2012-8-20,99.7,86.2,77.9,78.0,74.6,70.0,87,70,47,29.55,29.44,13,2,13,0.00
2012-8-21,100.0,86.1,78.6,76.8,72.6,69.2,82,66,45,29.61,29.50,11,2,11,0.00
2012-8-22,100.4,83.6,76.5,78.8,72.2,67.8,83,69,47,29.62,29.54,10,1,10,0.00
2012-8-23,99.3,85.9,76.3,76.8,72.8,68.9,85,67,47,29.61,29.53,13,1,13,0.00
2012-8-24,93.4,84.3,74.7,75.7,72.0,66.9,83,67,53,29.57,29.44,17,2,17,0.16
2012-8-25,84.7,79.2,74.1,76.8,72.2,66.1,87,79,73,29.50,29.40,15,4,15,0.00
2012-8-26,82.6,78.7,75.7,75.7,74.1,71.4,91,86,73,29.41,29.22,24,7,24,0.00
2012-8-27,86.0,79.7,75.9,79.0,75.4,72.0,91,87,77,29.48,29.25,21,7,21,0.08
2012-8-28,98.4,84.4,76.8,80.6,76.1,72.7,91,77,56,29.54,29.44,13,3,13,0.04
2012-8-29,98.4,86.6,79.0,78.2,75.1,73.2,84,70,50,29.53,29.44,16,2,16,0.00
2012-8-30,98.1,86.0,77.5,78.1,74.3,72.4,86,69,50,29.63,29.48,10,1,10,0.00
2012-8-31,98.1,85.8,79.5,76.2,74.0,71.1,84,69,46,29.67,29.58,10,0,10,0.00
2012-9-1,94.8,84.6,77.9,76.2,74.0,72.2,86,71,54,29.64,29.55,17,2,17,0.00
2012-9-2,92.8,83.4,76.6,74.1,71.3,69.1,84,68,51,29.58,29.49,10,2,10,0.00
2012-9-3,97.2,84.7,76.1,75.6,71.6,69.3,83,66,46,29.57,29.49,10,1,10,0.00
2012-9-4,99.7,84.2,76.3,76.1,71.3,61.8,82,67,46,29.57,29.46,10,1,10,0.00
2012-9-5,100.8,82.1,75.9,76.8,71.2,67.0,83,71,46,29.55,29.45,10,1,10,0.00
2012-9-6,94.8,80.1,74.8,78.5,71.9,65.9,87,77,54,29.57,29.48,11,1,11,0.04
2012-9-7,97.2,80.9,72.9,78.3,71.9,67.9,87,75,53,29.53,29.44,9,0,9,0.00
2012-9-8,100.9,84.1,74.8,76.2,72.5,69.9,88,70,40,29.51,29.40,10,1,10,0.00
2012-9-9,98.8,86.6,77.7,75.3,72.1,68.7,81,64,42,29.51,29.41,10,1,10,0.00
2012-9-10,95.0,85.0,78.6,77.4,73.6,71.0,83,70,51,29.53,29.45,10,1,10,0.00
2012-9-11,94.3,82.6,77.0,76.6,73.4,71.0,87,74,55,29.59,29.50,12,2,12,0.00
2012-9-12,93.4,83.7,77.7,74.6,72.1,69.1,86,69,53,29.59,29.50,17,4,17,0.04
2012-9-13,84.7,80.6,76.3,74.4,72.1,70.5,85,76,67,29.60,29.49,10,2,10,0.00
2012-9-14,94.1,82.1,74.8,76.2,72.3,69.2,86,73,55,29.55,29.47,10,1,10,0.04
2012-9-15,93.9,81.6,75.6,76.9,72.8,69.3,89,76,52,29.57,29.49,10,1,10,0.00
2012-9-16,77.9,77.6,77.4,72.7,72.1,71.2,85,83,81,29.55,29.51,0,0,0,0.00
2012-9-27,91.6,82.3,76.3,74.7,72.8,67.8,85,73,56,29.59,29.50,9,1,9,0.00
2012-9-28,93.0,80.5,75.4,76.7,72.8,71.3,89,78,52,29.55,29.44,8,0,8,0.00
2012-9-29,94.8,82.6,75.4,76.6,73.0,69.9,87,74,51,29.49,29.37,9,1,9,0.00
2012-9-30,95.7,83.8,75.4,75.7,73.1,71.1,87,72,50,29.43,29.31,10,1,10,0.00
2012-10-1,92.8,80.8,76.1,77.4,73.4,71.8,88,79,59,29.41,29.29,10,1,10,0.00
2012-10-2,91.2,79.8,74.5,78.4,73.5,70.4,89,82,63,29.59,29.39,13,2,13,0.00
2012-10-3,94.1,83.2,75.9,78.8,75.2,72.3,90,78,57,29.69,29.56,10,1,10,0.00
2012-10-4,96.6,85.0,79.0,78.2,75.4,73.0,87,74,54,29.68,29.57,10,1,10,0.00
2012-10-5,95.0,85.2,79.5,77.4,74.2,72.4,83,71,51,29.62,29.45,9,1,9,0.00
2012-10-6,95.2,83.0,77.7,75.9,73.4,71.7,86,74,52,29.50,29.37,7,1,7,0.00
2012-10-7,91.2,79.9,75.0,76.0,72.5,69.5,88,79,57,29.50,29.39,9,1,9,0.00
2012-10-8,92.1,81.3,75.7,76.6,73.8,71.8,89,79,58,29.54,29.43,8,0,8,0.00
2012-10-9,94.3,82.8,76.1,75.6,73.6,71.1,91,75,53,29.54,29.47,9,1,9,0.00
2012-10-10,90.1,81.3,76.1,76.2,72.4,68.6,87,75,60,29.59,29.49,11,2,11,0.00
2012-10-11,88.3,79.5,73.0,69.6,67.2,64.5,84,67,49,29.63,29.55,16,3,16,0.00
2012-10-12,87.3,79.9,74.5,66.5,64.1,62.1,71,59,46,29.64,29.55,16,5,16,0.00
2012-10-13,86.4,78.9,72.5,71.7,66.2,62.9,81,66,48,29.62,29.54,18,5,18,0.00
2012-10-14,88.0,81.2,78.4,74.8,71.2,65.0,80,72,63,29.58,29.45,16,5,16,0.00
2012-10-15,82.8,79.0,78.4,72.5,71.8,71.2,81,79,70,29.46,29.37,10,1,10,0.00
2012-10-25,77.7,75.9,72.3,70.2,68.1,64.5,83,77,66,29.16,29.09,20,7,20,0.00
2012-10-26,79.7,74.0,69.4,70.9,66.8,62.8,90,79,64,29.09,28.91,23,6,23,0.00
2012-10-27,84.2,74.3,67.8,66.0,61.9,59.8,82,66,46,29.14,28.92,15,4,15,0.00
2012-10-28,85.8,73.2,67.1,64.5,60.9,54.5,86,67,45,29.24,29.11,11,2,11,0.00
2012-10-29,75.9,65.9,59.0,54.8,48.1,40.1,70,54,30,29.32,29.20,15,3,15,0.00
2012-10-30,75.0,63.5,54.7,50.3,46.3,40.4,70,55,38,29.45,29.27,15,2,15,0.00
2012-10-31,76.8,64.7,55.2,54.8,50.5,45.0,82,62,39,29.52,29.43,9,0,9,0.00
2012-11-1,83.5,68.7,56.8,61.8,56.9,51.4,84,68,44,29.52,29.41,7,0,7,0.00
2012-11-2,82.6,71.2,63.1,63.4,56.2,47.6,88,62,34,29.54,29.45,8,0,8,0.00
2012-11-3,85.5,69.7,58.8,59.9,54.6,47.2,80,61,28,29.59,29.49,7,0,7,0.00
2012-11-4,85.8,71.6,62.4,64.4,60.6,57.4,84,70,46,29.56,29.45,4,0,4,0.00
2012-11-5,82.6,72.1,66.0,62.5,59.3,55.6,84,66,44,29.48,29.38,6,0,6,0.00
2012-11-6,86.2,73.4,64.2,64.7,59.9,53.8,84,65,34,29.39,29.26,8,1,8,0.00
2012-11-7,74.5,67.4,59.5,62.1,54.5,47.9,83,64,47,29.44,29.28,13,2,13,0.00
2012-11-8,71.8,62.1,55.2,49.6,43.9,38.4,72,53,32,29.56,29.41,14,2,14,0.00
2012-11-9,77.7,66.7,56.8,56.0,51.0,48.4,76,59,40,29.65,29.54,12,2,12,0.00
2012-11-10,79.9,72.1,68.7,57.0,53.2,49.9,60,52,44,29.71,29.61,10,2,10,0.00
2012-11-11,83.1,75.6,71.4,65.1,59.1,53.6,79,57,41,29.69,29.61,11,3,11,0.04
2012-11-12,84.7,75.5,70.5,69.2,65.4,61.4,85,71,55,29.65,29.56,13,2,13,0.00
2012-11-13,83.1,75.5,69.6,65.5,63.9,62.0,78,68,54,29.59,29.50,8,1,8,0.00
2012-11-14,84.7,74.4,67.6,67.8,64.1,61.4,84,71,54,29.57,29.49,10,1,10,0.00
2012-11-15,85.1,72.8,64.2,66.7,62.5,58.9,85,72,47,29.55,29.48,8,0,8,0.00
2012-11-16,79.0,70.0,64.2,66.4,63.2,60.7,89,80,64,29.56,29.47,8,1,8,0.00
2012-11-17,80.8,72.1,65.7,65.2,63.4,61.1,90,75,55,29.55,29.47,10,1,10,0.00
2012-11-18,81.9,71.5,66.9,67.0,63.9,61.6,87,78,57,29.56,29.48,8,1,10,0.00
2012-11-19,75.0,66.1,60.4,61.6,57.3,55.2,84,74,56,29.58,29.46,8,1,8,0.00
2012-11-20,74.3,65.6,59.9,63.2,59.0,55.3,90,79,67,29.49,29.36,11,1,11,0.00
2012-11-21,78.6,66.7,59.5,61.7,55.9,51.8,85,69,48,29.48,29.36,9,2,9,0.00
2012-11-22,75.9,64.4,56.8,55.1,50.0,46.6,73,60,44,29.55,29.44,13,3,13,0.00
2012-11-23,78.8,65.0,55.2,57.5,52.4,47.6,77,65,47,29.58,29.48,8,1,8,0.00
2012-11-24,76.5,63.9,54.1,54.4,50.6,46.4,77,63,39,29.56,29.45,15,1,15,0.00
2012-11-25,79.3,65.0,54.7,57.8,53.4,49.1,83,68,43,29.58,29.49,3,0,3,0.00
2012-11-26,81.1,68.9,58.8,63.2,58.0,51.6,83,69,50,29.64,29.55,7,0,7,0.00
2012-11-27,84.4,72.6,65.1,66.0,61.9,58.1,81,70,52,29.64,29.54,8,1,8,0.00
2012-11-28,80.1,71.1,65.8,64.0,62.1,60.0,86,74,51,29.63,29.54,9,1,9,0.00
2012-11-29,79.7,70.6,62.4,63.7,61.0,57.8,87,72,57,29.66,29.59,9,2,9,0.00
2012-11-30,77.4,72.8,70.5,61.4,59.5,56.6,69,63,55,29.67,29.58,10,2,10,0.00
2012-12-1,80.6,74.1,71.2,62.4,60.9,59.6,70,64,52,29.64,29.57,9,2,9,0.00
2012-12-2,80.8,74.4,71.2,65.2,62.6,60.7,73,67,57,29.68,29.59,9,2,9,0.00
2012-12-3,80.4,73.4,70.0,62.9,58.7,50.8,74,61,47,29.70,29.61,9,1,9,0.00
2012-12-4,81.0,73.6,69.8,61.7,58.3,51.0,68,59,46,29.68,29.59,9,1,9,0.00
2012-12-5,72.3,70.2,67.1,63.0,61.7,60.2,81,75,67,29.59,29.54,8,0,8,0.00
2012-12-6,84.4,76.1,69.1,65.9,64.0,62.1,85,67,53,29.43,29.35,10,0,10,0.00
2012-12-7,84.0,74.0,68.0,68.6,65.7,63.5,88,76,57,29.43,29.35,9,1,10,0.00
2012-12-8,82.8,74.7,67.6,70.5,67.5,63.1,87,79,66,29.48,29.40,8,1,8,0.00
2012-12-9,86.4,76.7,70.2,73.6,70.4,66.4,89,81,63,29.54,29.43,7,0,7,0.00
2012-12-10,86.4,77.3,71.2,74.6,71.3,67.5,91,82,66,29.48,29.35,12,2,12,0.00
2012-12-11,91.0,79.4,71.8,75.5,72.0,67.4,87,79,58,29.50,29.37,10,1,10,0.00
2012-12-12,86.0,77.8,73.6,72.4,70.1,68.2,87,78,62,29.54,29.45,9,1,9,0.00
2012-12-13,79.3,72.2,65.5,72.5,66.5,60.8,88,82,74,29.55,29.47,10,1,10,0.00
2012-12-14,78.1,69.4,63.3,67.1,61.9,57.8,88,78,51,29.58,29.49,13,1,13,0.00
2012-12-15,79.3,73.3,67.8,65.0,62.7,61.4,85,70,59,29.55,29.46,8,1,8,0.00
2012-12-16,83.8,74.6,68.0,68.0,65.2,62.2,84,73,56,29.49,29.40,9,1,9,0.00
2012-12-17,84.9,73.9,65.3,67.3,64.5,60.8,87,74,49,29.43,29.33,7,1,7,0.00
2012-12-18,85.1,74.4,67.1,69.0,65.1,63.4,89,74,52,29.46,29.35,6,0,6,0.00
2012-12-19,82.9,71.9,61.5,63.8,60.6,54.2,83,69,49,29.54,29.45,5,0,5,0.00
2012-12-20,84.7,73.2,64.2,65.2,62.8,58.9,84,71,49,29.54,29.41,8,1,8,0.00
2012-12-21,70.7,64.5,52.3,66.6,49.6,37.3,87,61,36,29.62,29.40,16,3,16,0.00
2012-12-22,65.1,54.0,45.5,39.1,31.3,23.7,62,43,27,29.70,29.61,13,2,13,0.00
2012-12-23,73.8,59.7,48.4,53.9,44.0,31.2,75,56,46,29.69,29.58,7,0,7,0.00
2012-12-24,79.3,66.1,56.8,59.6,54.5,49.6,79,67,49,29.59,29.44,8,1,8,0.00
2012-12-25,80.2,68.9,58.8,62.9,58.6,53.7,84,71,51,29.50,29.38,8,1,8,0.00
2012-12-26,84.7,74.7,64.2,69.4,65.4,57.0,86,74,56,29.43,29.28,12,2,12,0.04
2012-12-27,73.8,61.9,54.1,57.0,48.4,41.2,82,63,35,29.52,29.42,7,0,7,0.00
2012-12-28,77.7,66.9,54.0,67.7,60.1,45.8,88,79,70,29.53,29.41,7,0,7,0.00
2012-12-29,83.1,74.4,62.6,72.2,67.6,49.8,90,80,63,29.55,29.37,8,2,8,0.00
2012-12-30,67.6,60.9,50.7,54.3,49.6,42.7,76,67,58,29.73,29.55,9,3,12,0.00
2012-12-31,76.5,69.4,64.6,59.6,56.1,52.5,68,63,54,29.75,29.64,8,2,8,0.00
2013-1-1,82.6,72.9,66.7,62.7,59.0,56.3,75,62,50,29.65,29.50,12,1,12,0.00